Petersburg, WV

12:31 AM EST on December 08, 2019 (GMT -0500)
Petersburg

Weather History for KW99 - September, 2019

Change the Weather History Date:

Thursday, September 26, 2019

  Actual Average (WUND) Record (WUND)
Temperature  
Mean Temperature 64 °F -  
Max Temperature 78 °F - - (-1)
Min Temperature 50 °F - - (-1)
Degree Days  
Heating Degree Days 1    
Growing Degree Days 14 (Base 50)    
Moisture  
Dew Point 56 °F    
Average Humidity 78    
Maximum Humidity 98    
Minimum Humidity 45    
Precipitation  
Precipitation 0.00 in - - ()
Sea Level Pressure  
Sea Level Pressure 29.89 in    
Wind  
Wind Speed 3 mph (WNW)    
Max Wind Speed 20 mph    
Max Gust Speed 25 mph    
Visibility 7 miles    
Events Rain    
Averages and records for this station are not official NWS values.
T = Trace of Precipitation, MM = Missing Value Source: NWS Daily Summary

Daily Weather History Graph

Daily Weather History Graph

Search for Another Location

Airport or City:

Astronomy

Sep. 26, 2019 Rise Set
Actual Time 7:07 AM EDT 7:07 PM EDT
Civil Twilight 6:41 AM EDT 7:34 PM EDT
Nautical Twilight 6:10 AM EDT 8:05 PM EDT
Astronomical Twilight 5:38 AM EDT 8:36 PM EDT
Moon 4:14 AM EDT (9/26) 6:17 PM EDT (9/26)
Length of Visible Light 12h 53m
Length of Day
11h 59m
Waning Crescent, 7% of the Moon is Illuminated
Sep 26
Waning Crescent
Sep 28
New
Oct 5
First Quarter
Oct 13
Full
Oct 21
Last Quarter

Hourly Weather History & Observations

Time (EDT) Temp. Dew Point Humidity Pressure Visibility Wind Dir Wind Speed Gust Speed Precip Events Conditions
12:15 AM 54.0 °F 51.3 °F 91% 29.91 in 7.0 mi Calm Calm - N/A   Clear
12:35 AM 52.9 °F 50.7 °F 92% 29.90 in 10.0 mi Calm Calm - N/A   Scattered Clouds
12:55 AM 53.4 °F 50.9 °F 91% 29.89 in 7.0 mi Calm Calm - N/A   Scattered Clouds
1:15 AM 53.1 °F 50.7 °F 92% 29.89 in 10.0 mi Calm Calm - N/A   Scattered Clouds
1:35 AM 52.7 °F 50.5 °F 92% 29.88 in 10.0 mi Calm Calm - N/A   Clear
1:55 AM 52.2 °F 50.4 °F 94% 29.88 in 10.0 mi Calm Calm - N/A   Clear
2:15 AM 53.1 °F 51.4 °F 94% 29.87 in 10.0 mi Calm Calm - N/A   Mostly Cloudy
2:35 AM 53.8 °F 52.2 °F 94% 29.87 in 10.0 mi Calm Calm - N/A   Overcast
2:55 AM 53.8 °F 52.0 °F 94% 29.87 in 10.0 mi Calm Calm - N/A   Mostly Cloudy
3:15 AM 53.2 °F 51.4 °F 94% 29.86 in 10.0 mi Calm Calm - N/A   Scattered Clouds
3:35 AM 53.8 °F 51.8 °F 93% 29.86 in 10.0 mi Calm Calm - N/A   Mostly Cloudy
3:55 AM 54.0 °F 52.7 °F 95% 29.85 in 10.0 mi Calm Calm - N/A   Overcast
4:15 AM 53.4 °F 52.2 °F 95% 29.85 in 7.0 mi Calm Calm - N/A   Scattered Clouds
4:35 AM 52.9 °F 51.4 °F 95% 29.85 in 7.0 mi Calm Calm - N/A   Clear
4:55 AM 51.6 °F 50.7 °F 97% 29.84 in 10.0 mi Calm Calm - N/A   Clear
5:15 AM 52.0 °F 51.1 °F 97% 29.84 in 7.0 mi Calm Calm - N/A   Clear
5:35 AM 51.4 °F 50.5 °F 97% 29.84 in 10.0 mi Calm Calm - N/A   Clear
5:50 AM 51.4 °F 50.7 °F 97% 29.83 in 10.0 mi Calm Calm - N/A   Clear
6:15 AM 50.5 °F 50.0 °F 98% 29.84 in 7.0 mi West 4.6 mph - N/A   Clear
6:35 AM 50.7 °F 50.2 °F 98% 29.85 in 7.0 mi Calm Calm - N/A   Clear
6:55 AM 50.9 °F 50.4 °F 98% 29.84 in 7.0 mi Calm Calm - N/A   Clear
7:15 AM 51.1 °F 50.4 °F 97% 29.86 in 7.0 mi Calm Calm - N/A   Clear
7:35 AM 51.8 °F 51.1 °F 97% 29.87 in 7.0 mi Calm Calm - N/A   Clear
7:55 AM 53.6 °F 52.0 °F 94% 29.85 in 7.0 mi Calm Calm - N/A   Clear
8:35 AM 57.2 °F 53.4 °F 87% 29.86 in 10.0 mi Calm Calm - N/A   Scattered Clouds
8:50 AM 58.5 °F 53.8 °F 84% 29.86 in 10.0 mi Calm Calm - N/A   Clear
9:15 AM 61.2 °F 53.8 °F 77% 29.85 in 10.0 mi Calm Calm - N/A   Clear
9:35 AM 63.0 °F 53.4 °F 71% 29.86 in 10.0 mi Calm Calm - N/A   Clear
9:55 AM 63.3 °F 54.7 °F 73% 29.86 in 10.0 mi Calm Calm - N/A   Clear
10:15 AM 64.8 °F 56.5 °F 74% 29.87 in 10.0 mi Calm Calm - N/A Rain Light Rain
10:35 AM 71.6 °F 57.4 °F 61% 29.86 in 10.0 mi Calm Calm - N/A   Mostly Cloudy
10:55 AM 77.7 °F 61.5 °F 57% 29.85 in 5.0 mi WNW 9.2 mph - N/A   Haze
11:15 AM 76.1 °F 61.0 °F 59% 29.84 in 3.0 mi West 10.4 mph - N/A   Haze
11:35 AM 75.7 °F 61.3 °F 61% 29.85 in 3.0 mi West 4.6 mph - N/A   Haze
11:55 AM 76.1 °F 62.4 °F 62% 29.85 in 3.0 mi WNW 4.6 mph - N/A   Haze
12:15 PM 75.2 °F 62.4 °F 64% 29.85 in 3.0 mi WNW 4.6 mph - N/A   Haze
12:35 PM 76.1 °F 62.6 °F 63% 29.85 in 5.0 mi NW 3.5 mph - N/A   Haze
12:55 PM 76.5 °F 62.6 °F 62% 29.86 in 0.2 mi WNW 19.6 mph 25.3 mph N/A   Haze
1:15 PM 77.0 °F 63.0 °F 62% 29.87 in 2.5 mi West 15.0 mph 19.6 mph N/A   Haze
1:35 PM 78.6 °F 63.3 °F 59% 29.87 in 1.5 mi WNW 12.7 mph 20.7 mph N/A   Haze
1:55 PM 76.3 °F 62.6 °F 62% 29.87 in 1.5 mi WNW 12.7 mph - N/A   Haze
2:15 PM 77.5 °F 62.4 °F 59% 29.87 in 2.0 mi WNW 12.7 mph 20.7 mph N/A   Haze
2:35 PM 77.9 °F 61.9 °F 58% 29.87 in 2.5 mi West 15.0 mph 21.9 mph N/A   Haze
2:55 PM 77.4 °F 61.3 °F 58% 29.87 in 2.5 mi West 19.6 mph 23.0 mph N/A   Haze
3:15 PM 78.4 °F 61.7 °F 56% 29.87 in 2.5 mi West 13.8 mph 17.3 mph N/A   Haze
3:35 PM 78.6 °F 60.8 °F 54% 29.86 in 1.2 mi West 11.5 mph - N/A   Haze
3:55 PM 78.4 °F 59.5 °F 52% 29.87 in 2.5 mi WNW 10.4 mph 18.4 mph N/A   Haze
4:15 PM 77.5 °F 57.9 °F 51% 29.87 in 1.5 mi West 16.1 mph - N/A   Haze
4:35 PM 77.0 °F 57.6 °F 51% 29.87 in 2.0 mi WNW 10.4 mph 18.4 mph N/A   Haze
4:55 PM 77.4 °F 57.6 °F 50% 29.88 in 3.0 mi West 15.0 mph 21.9 mph N/A   Haze
5:15 PM 76.8 °F 54.0 °F 45% 29.88 in 1.0 mi WNW 15.0 mph 21.9 mph N/A   Haze
5:35 PM 77.4 °F 55.9 °F 47% 29.89 in 1.5 mi WNW 10.4 mph 20.7 mph N/A   Haze
5:55 PM 75.2 °F 55.9 °F 51% 29.89 in 3.0 mi West 10.4 mph - N/A   Haze
6:15 PM 75.7 °F 56.5 °F 51% 29.90 in 3.0 mi NW 4.6 mph - N/A   Haze
6:35 PM 74.5 °F 57.0 °F 54% 29.91 in 7.0 mi Calm Calm - N/A   Scattered Clouds
6:55 PM 72.1 °F 56.7 °F 58% 29.91 in 4.0 mi WNW 4.6 mph - N/A   Haze
7:15 PM 68.2 °F 57.4 °F 68% 29.92 in 7.0 mi Calm Calm - N/A   Clear
7:35 PM 65.5 °F 58.1 °F 77% 29.93 in 7.0 mi WNW 3.5 mph - N/A   Clear
7:55 PM 63.7 °F 57.7 °F 81% 29.94 in 7.0 mi Calm Calm - N/A   Clear
8:15 PM 63.9 °F 57.0 °F 78% 29.94 in 10.0 mi Calm Calm - N/A   Clear
8:35 PM 62.6 °F 58.1 °F 85% 29.95 in 10.0 mi Calm Calm - N/A   Clear
8:55 PM 59.7 °F 55.9 °F 87% 29.96 in 7.0 mi Calm Calm - N/A   Clear
9:15 PM 60.6 °F 57.2 °F 88% 29.97 in 3.0 mi Calm Calm - N/A   Clear
9:35 PM 57.9 °F 54.7 °F 89% 29.99 in 10.0 mi Calm Calm - N/A   Clear
9:55 PM 59.4 °F 57.7 °F 94% 29.99 in 7.0 mi Calm Calm - N/A   Clear
10:15 PM 57.0 °F 55.0 °F 93% 30.00 in 7.0 mi Calm Calm - N/A   Clear
10:35 PM 57.2 °F 56.5 °F 97% 30.00 in 10.0 mi Calm Calm - N/A   Clear
10:55 PM 54.5 °F 53.6 °F 97% 30.01 in 10.0 mi Calm Calm - N/A   Clear
11:15 PM 53.2 °F 52.3 °F 97% 30.02 in 10.0 mi Calm Calm - N/A   Clear
11:35 PM 54.0 °F 53.2 °F 97% 30.02 in 10.0 mi Calm Calm - N/A   Clear
11:55 PM 52.2 °F 51.1 °F 96% 30.02 in 10.0 mi Calm Calm - N/A   Clear